• En España
  • Lista de países
  • Para 7 días
  • Temperatura del agua
  • El tiempo en el mapa
  • Informadores
  • user-avatar
    Iniciar sesión

    Tiempo cada hora Sidi Bu-l-Abbas

    Hoy, 8 Abril, Miércoles

    Tiempo Temperatura Precipitaciones Viento Presión Humedad
    00:00 +13°C° 0 mm 0 mps 724 mmHg 83%
    01:00 +12°C° 0 mm 0 mps 724 mmHg 84%
    02:00 +12°C° 0 mm 0 mps 724 mmHg 85%
    03:00 +12°C° 0 mm 0 mps 723 mmHg 86%
    04:00 +11°C° 0 mm 0 mps 723 mmHg 87%
    05:00 +11°C° 0 mm 0 mps 723 mmHg 88%
    06:00 +13°C° 0 mm 1 mps 723 mmHg 91%
    07:00 +14°C° 0 mm 1 mps 723 mmHg 82%
    08:00 +16°C° 0 mm 1 mps 723 mmHg 73%
    09:00 +19°C° 0 mm 1 mps 724 mmHg 64%
    10:00 +21°C° 0 mm 1 mps 724 mmHg 60%
    11:00 +21°C° 0 mm 2 mps 724 mmHg 56%
    12:00 +24°C° 0 mm 3 mps 724 mmHg 52%
    13:00 +24°C° 0 mm 3 mps 723 mmHg 53%
    14:00 +23°C° 0 mm 4 mps 723 mmHg 54%
    15:00 +23°C° 0 mm 5 mps 722 mmHg 55%
    16:00 +22°C° 0 mm 4 mps 722 mmHg 59%
    17:00 +20°C° 0 mm 4 mps 722 mmHg 64%
    18:00 +19°C° 0 mm 3 mps 722 mmHg 69%
    19:00 +18°C° 0 mm 2 mps 722 mmHg 72%
    20:00 +18°C° 0 mm 1 mps 722 mmHg 76%
    21:00 +15°C° 0 mm 0 mps 723 mmHg 79%
    22:00 +16°C° 0 mm 1 mps 723 mmHg 79%
    23:00 +16°C° 0 mm 1 mps 723 mmHg 80%

    Mañana, 9 Abril, Jueves

    Tiempo Temperatura Precipitaciones Viento Presión Humedad
    00:00 +15°C° 0 mm 1 mps 722 mmHg 80%
    01:00 +15°C° 0 mm 1 mps 722 mmHg 81%
    02:00 +15°C° 0 mm 1 mps 721 mmHg 82%
    03:00 +15°C° 0 mm 1 mps 721 mmHg 83%
    04:00 +15°C° 0 mm 1 mps 721 mmHg 83%
    05:00 +15°C° 0 mm 1 mps 721 mmHg 83%
    06:00 +15°C° 0 mm 1 mps 721 mmHg 83%
    07:00 +15°C° 0 mm 1 mps 721 mmHg 80%
    08:00 +16°C° 0 mm 1 mps 722 mmHg 76%
    09:00 +18°C° 0 mm 1 mps 722 mmHg 73%
    10:00 +20°C° 0.1 mm 1 mps 722 mmHg 67%
    11:00 +20°C° 0.1 mm 2 mps 722 mmHg 61%
    12:00 +23°C° 0.1 mm 2 mps 722 mmHg 55%
    13:00 +22°C° 0.2 mm 3 mps 722 mmHg 55%
    14:00 +22°C° 0.2 mm 3 mps 722 mmHg 54%
    15:00 +24°C° 0.2 mm 3 mps 721 mmHg 54%
    16:00 +21°C° 0 mm 3 mps 721 mmHg 59%
    17:00 +20°C° 0 mm 3 mps 721 mmHg 63%
    18:00 +19°C° 0 mm 3 mps 721 mmHg 68%
    19:00 +18°C° 0 mm 2 mps 721 mmHg 71%
    20:00 +18°C° 0 mm 1 mps 721 mmHg 74%
    21:00 +18°C° 0 mm 1 mps 722 mmHg 78%
    22:00 +16°C° 0 mm 1 mps 721 mmHg 78%
    23:00 +16°C° 0 mm 2 mps 721 mmHg 79%

    Pasado mañana, 10 Abril, Viernes

    Tiempo Temperatura Precipitaciones Viento Presión Humedad
    00:00 +16°C° 0 mm 2 mps 721 mmHg 80%
    01:00 +15°C° 0.2 mm 2 mps 721 mmHg 83%
    02:00 +15°C° 0.2 mm 1 mps 721 mmHg 85%
    03:00 +15°C° 0.2 mm 1 mps 720 mmHg 88%
    04:00 +15°C° 0.1 mm 1 mps 721 mmHg 90%
    05:00 +14°C° 0.1 mm 1 mps 721 mmHg 92%
    06:00 +14°C° 0.1 mm 2 mps 721 mmHg 93%
    07:00 +14°C° 0 mm 2 mps 721 mmHg 90%
    08:00 +15°C° 0 mm 2 mps 722 mmHg 87%
    09:00 +15°C° 0 mm 2 mps 722 mmHg 84%
    10:00 +16°C° 0 mm 3 mps 722 mmHg 81%
    11:00 +17°C° 0 mm 3 mps 722 mmHg 77%
    12:00 +18°C° 0 mm 4 mps 722 mmHg 74%
    13:00 +18°C° 0 mm 4 mps 722 mmHg 73%
    14:00 +18°C° 0 mm 4 mps 722 mmHg 73%
    15:00 +18°C° 0 mm 4 mps 722 mmHg 72%
    16:00 +17°C° 0 mm 3 mps 722 mmHg 73%
    17:00 +17°C° 0 mm 3 mps 722 mmHg 75%
    18:00 +16°C° 0 mm 3 mps 722 mmHg 76%
    19:00 +15°C° 0 mm 2 mps 722 mmHg 82%
    20:00 +14°C° 0 mm 2 mps 722 mmHg 87%
    21:00 +13°C° 0 mm 1 mps 723 mmHg 93%
    22:00 +13°C° 0 mm 1 mps 723 mmHg 94%
    23:00 +12°C° 0 mm 1 mps 722 mmHg 94%

    11 Abril, Sábado

    Tiempo Temperatura Precipitaciones Viento Presión Humedad
    00:00 +12°C° 0 mm 1 mps 722 mmHg 95%
    01:00 +11°C° 0 mm 1 mps 722 mmHg 95%
    02:00 +11°C° 0 mm 1 mps 722 mmHg 95%
    03:00 +10°C° 0 mm 0 mps 722 mmHg 95%
    04:00 +11°C° 0 mm 1 mps 722 mmHg 95%
    05:00 +11°C° 0 mm 1 mps 722 mmHg 94%
    06:00 +11°C° 0 mm 1 mps 722 mmHg 94%
    07:00 +13°C° 0 mm 1 mps 722 mmHg 84%
    08:00 +15°C° 0 mm 2 mps 723 mmHg 73%
    09:00 +17°C° 0 mm 2 mps 723 mmHg 63%
    10:00 +18°C° 0 mm 2 mps 723 mmHg 58%
    11:00 +20°C° 0 mm 3 mps 723 mmHg 52%
    12:00 +21°C° 0 mm 3 mps 722 mmHg 47%
    13:00 +22°C° 0 mm 4 mps 722 mmHg 47%
    14:00 +22°C° 0 mm 5 mps 721 mmHg 46%
    15:00 +22°C° 0 mm 5 mps 721 mmHg 46%
    16:00 +21°C° 0 mm 5 mps 720 mmHg 55%
    17:00 +19°C° 0 mm 5 mps 720 mmHg 64%
    18:00 +17°C° 0 mm 5 mps 720 mmHg 73%
    19:00 +17°C° 0 mm 4 mps 720 mmHg 76%
    20:00 +16°C° 0 mm 3 mps 720 mmHg 79%
    21:00 +15°C° 0 mm 2 mps 720 mmHg 83%
    22:00 +16°C° 0.2 mm 2 mps 720 mmHg 82%
    23:00 +16°C° 0.2 mm 2 mps 720 mmHg 82%

    12 Abril, Domingo

    Tiempo Temperatura Precipitaciones Viento Presión Humedad
    00:00 +16°C° 0.2 mm 2 mps 720 mmHg 82%
    01:00 +16°C° 0 mm 2 mps 719 mmHg 83%
    02:00 +16°C° 0 mm 2 mps 719 mmHg 84%
    03:00 +16°C° 0 mm 2 mps 719 mmHg 85%
    04:00 +15°C° 0 mm 1 mps 718 mmHg 87%
    05:00 +15°C° 0 mm 1 mps 718 mmHg 88%
    06:00 +14°C° 0 mm 0 mps 718 mmHg 90%
    07:00 +16°C° 0 mm 1 mps 719 mmHg 87%
    08:00 +16°C° 0 mm 1 mps 719 mmHg 83%
    09:00 +18°C° 0 mm 1 mps 719 mmHg 79%
    10:00 +18°C° 0.1 mm 2 mps 719 mmHg 76%
    11:00 +19°C° 0.1 mm 2 mps 719 mmHg 73%
    12:00 +20°C° 0.1 mm 2 mps 719 mmHg 70%
    13:00 +20°C° 0.1 mm 3 mps 718 mmHg 70%
    14:00 +20°C° 0.1 mm 3 mps 718 mmHg 70%
    15:00 +21°C° 0.1 mm 3 mps 717 mmHg 70%
    16:00 +20°C° 0.4 mm 3 mps 717 mmHg 75%
    17:00 +18°C° 0.4 mm 3 mps 717 mmHg 81%
    18:00 +17°C° 0.4 mm 3 mps 717 mmHg 86%
    19:00 +17°C° 0.7 mm 2 mps 717 mmHg 89%
    20:00 +16°C° 0.7 mm 1 mps 717 mmHg 92%
    21:00 +16°C° 0.7 mm 1 mps 717 mmHg 95%
    22:00 +16°C° 0.4 mm 1 mps 717 mmHg 95%
    23:00 +15°C° 0.4 mm 1 mps 717 mmHg 95%

    13 Abril, Lunes

    Tiempo Temperatura Precipitaciones Viento Presión Humedad
    00:00 +15°C° 0.4 mm 1 mps 717 mmHg 95%
    01:00 +15°C° 0.3 mm 1 mps 717 mmHg 95%
    02:00 +15°C° 0.3 mm 2 mps 717 mmHg 95%
    03:00 +15°C° 0.3 mm 2 mps 717 mmHg 95%
    04:00 +15°C° 0 mm 1 mps 717 mmHg 95%
    05:00 +15°C° 0 mm 1 mps 716 mmHg 95%
    06:00 +15°C° 0 mm 1 mps 716 mmHg 95%
    07:00 +16°C° 0 mm 1 mps 717 mmHg 88%
    08:00 +18°C° 0 mm 1 mps 717 mmHg 82%
    09:00 +19°C° 0 mm 1 mps 717 mmHg 76%
    10:00 +19°C° 0 mm 2 mps 717 mmHg 73%
    11:00 +20°C° 0 mm 3 mps 717 mmHg 70%
    12:00 +21°C° 0 mm 3 mps 717 mmHg 67%
    13:00 +21°C° 0 mm 4 mps 717 mmHg 68%
    14:00 +21°C° 0 mm 4 mps 716 mmHg 69%
    15:00 +20°C° 0 mm 4 mps 716 mmHg 71%
    16:00 +20°C° 0 mm 4 mps 716 mmHg 74%
    17:00 +19°C° 0 mm 4 mps 716 mmHg 78%
    18:00 +18°C° 0 mm 3 mps 716 mmHg 81%
    19:00 +17°C° 0 mm 3 mps 717 mmHg 85%
    20:00 +16°C° 0 mm 2 mps 717 mmHg 88%
    21:00 +16°C° 0 mm 1 mps 717 mmHg 91%
    22:00 +15°C° 0 mm 1 mps 717 mmHg 93%
    23:00 +15°C° 0 mm 1 mps 717 mmHg 94%
    Mostrar más